Location: Sedan
(39.2354°N, 78.5718°W)
Time: 13:11:15
(UTC+00:00)

Envisat - Pass Details

Date: 09 December 2021
Orbit: 764 x 766 km, 98.2° (Epoch: 19 January)

Event Time Altitude Azimuth Distance (km) Brightness Sun altitude
Rises 09:08:47 0° 29° (NNE) 3,238 6.6 -36.6°
Reaches altitude 10° 09:11:42 10° 46° (NE) 2,307 5.9 -36.1°
Maximum altitude 09:15:25 20° 93° (E) 1,701 5.4 -35.4°
Drops below altitude 10° 09:19:07 10° 140° (SE) 2,294 5.9 -34.6°
Sets 09:21:59 0° 157° (SSE) 3,214 6.5 -34.1°
